Weather History for KPHL - August, 2012

Change the Weather History Date:

Saturday, August 25, 2012

  Actual Average Record
Temperature  
Mean Temperature 78 °F 76 °F  
Max Temperature 83 °F 84 °F 97 °F (1968)
Min Temperature 72 °F 67 °F 47 °F (1963)
Degree Days  
Heating Degree Days 0 0  
Month to date heating degree days 0 0  
Since 1 June heating degree days 7 11  
Since 1 July heating degree days 0 0  
Cooling Degree Days 13 11  
Month to date cooling degree days 346 302  
Year to date cooling degree days 1307 1059  
Since 1 June cooling degree days 1143 968  
Growing Degree Days 27 (Base 50)    
Moisture  
Dew Point 66 °F    
Average Humidity 71    
Maximum Humidity 84    
Minimum Humidity 58    
Precipitation  
Precipitation T in 0.11 in 3.03 in (1906)
Month to date precipitation 4.36 2.90  
Year to date precipitation 19.90 27.42  
Snow  
Snow 0.00 in 0.00 in 0.00 in (1870)
Month to date snowfall 0.0 0.0  
Since 1 June snowfall 0.0 0.0  
Since 1 July snowfall 0.0 0.0  
Snow Depth 0.00 in    
Sea Level Pressure  
Sea Level Pressure 30.22 in    
Wind  
Wind Speed 9 mph (East)    
Max Wind Speed 18 mph    
Max Gust Speed 24 mph    
Visibility 10 miles    
Events Rain    
T = Trace of Precipitation, MM = Missing Value Source: NWS Daily Summary

Daily Weather History Graph

Daily Weather History Graph

Search for Another Location

Airport or City:

Trip Planner

Search our weather history database for the weather conditions in past years. The results will help you decide how hot, cold, wet, or windy it might be!

Date:

Astronomy

Aug. 25, 2012 Rise Set
Actual Time 6:22 AM EDT 7:42 PM EDT
Civil Twilight 5:54 AM EDT 8:10 PM EDT
Nautical Twilight 5:20 AM EDT 8:44 PM EDT
Astronomical Twilight 4:45 AM EDT 9:19 PM EDT
Moon 3:13 PM EDT (8/25) 12:04 AM EDT (8/25)
Length of Visible Light 14h 15m
Length of Day
13h 19m
Waxing Gibbous, 62% of the Moon is Illuminated
Aug 25
Waxing Gibbous
Aug 31
Full
Sep 8
Last Quarter
Sep 15
New
Sep 22
First Quarter

Hourly Weather History & Observations

Time (EDT) Temp. Heat Index Dew Point Humidity Pressure Visibility Wind Dir Wind Speed Gust Speed Precip Events Conditions
12:54 AM 75.0 °F - 66.0 °F 73% 30.19 in 10.0 mi Calm Calm - N/A   Overcast
1:54 AM 73.9 °F - 64.9 °F 73% 30.19 in 10.0 mi South 4.6 mph - N/A   Overcast
2:54 AM 73.0 °F - 64.9 °F 76% 30.19 in 10.0 mi Calm Calm - N/A   Overcast
3:54 AM 73.0 °F - 64.9 °F 76% 30.19 in 10.0 mi NE 3.5 mph - N/A   Overcast
4:54 AM 73.0 °F - 64.9 °F 76% 30.18 in 10.0 mi East 4.6 mph - N/A   Overcast
5:54 AM 72.0 °F - 66.9 °F 84% 30.19 in 10.0 mi East 5.8 mph - N/A   Overcast
6:54 AM 73.0 °F - 64.9 °F 76% 30.21 in 10.0 mi ENE 4.6 mph - N/A   Overcast
7:54 AM 73.9 °F - 64.9 °F 73% 30.22 in 10.0 mi ENE 6.9 mph - N/A   Overcast
8:54 AM 75.9 °F - 64.9 °F 69% 30.24 in 10.0 mi East 8.1 mph - N/A   Overcast
9:54 AM 77.0 °F - 66.0 °F 69% 30.25 in 10.0 mi East 10.4 mph - N/A   Overcast
10:54 AM 79.0 °F - 66.9 °F 66% 30.24 in 10.0 mi ENE 9.2 mph - N/A   Overcast
11:54 AM 81.0 °F 82.5 °F 64.0 °F 56% 30.23 in 10.0 mi East 10.4 mph - N/A   Overcast
12:54 PM 81.0 °F 83.0 °F 66.0 °F 60% 30.22 in 10.0 mi East 9.2 mph - N/A   Overcast
1:54 PM 81.0 °F 83.0 °F 66.0 °F 60% 30.22 in 10.0 mi East 12.7 mph - N/A   Overcast
2:54 PM 81.0 °F 82.5 °F 64.0 °F 56% 30.22 in 10.0 mi East 12.7 mph - N/A   Overcast
3:54 PM 81.0 °F 82.5 °F 64.0 °F 56% 30.22 in 10.0 mi East 12.7 mph - N/A   Overcast
4:54 PM 79.0 °F - 66.0 °F 64% 30.22 in 10.0 mi East 11.5 mph - 0.00 in Rain Light Rain
5:54 PM 79.0 °F - 66.9 °F 66% 30.22 in 10.0 mi East 11.5 mph - 0.00 in   Overcast
6:54 PM 78.1 °F - 66.9 °F 68% 30.23 in 10.0 mi East 12.7 mph - N/A   Overcast
7:54 PM 77.0 °F - 68.0 °F 74% 30.23 in 10.0 mi East 10.4 mph - N/A   Overcast
8:54 PM 75.9 °F - 68.0 °F 76% 30.23 in 10.0 mi ENE 11.5 mph - N/A   Overcast
9:54 PM 75.0 °F - 66.9 °F 76% 30.23 in 10.0 mi East 12.7 mph - N/A   Mostly Cloudy
10:54 PM 73.9 °F - 66.9 °F 79% 30.24 in 10.0 mi East 13.8 mph - N/A   Mostly Cloudy
11:54 PM 73.9 °F - 66.0 °F 76% 30.23 in 10.0 mi East 6.9 mph - 0.00 in   Mostly Cloudy